Home > Time Zones > World Clock > Weather > China > Hefei > Past weeks

Flag for China Weather past 2 weeks in Hefei, Anhui, China

Now
59 °F

Clear.


Feels Like: 58 °F
Forecast: 57 / 74 °F
Wind: 6 mph from East

Location: Hefei Airport

Current Time: Oct 1, 2014 at 12:23:41 AM

Latest Report: Oct 1, 2014 at 12:00 AM


Visibility: 10 mi

Pressure: 30.12 "Hg

Humidity: 88%

Dew point: 55 °F

Location of HefeiLocation

Historic Weather in Hefei — Graph

°F

Hefei temperature yesterday

Maximum temperature yesterday: 68 °F (at 12:00 AM)
Minimum temperature yesterday: 61 °F (at 9:00 PM)
Average temperature yesterday: 66 °F

Past Weeks' High & Low Weather Summary

 TemperatureHumidityPressure
High90 °F (Sep 28, 1:00 PM)100% (Sep 17, 9:00 PM)30.18 "Hg (Sep 17, 9:00 PM)
Low59 °F (Sep 20, 6:00 AM)51% (Sep 22, 2:00 PM)29.71 "Hg (Sep 28, 3:00 PM)
Average71 °F86%29.95 "Hg
* Reported Sep 15 11:00 PM — Sep 30 11:00 PM, Hefei, Weather by CustomWeather, © 2014

Note: Actual official high and low records may vary slightly from our data, if they occured in-between our weather recording intervals... More about our weather records

Advertising

Hefei weather history for previous 24 hours

 ConditionsComfort  
Time TempWeatherWind HumidityBarometerVisibility
11:00 PM
Sep 30
61 °FClear.6 mph88%30.15 "Hg10 mi
10:00 PM61 °FClear.6 mph88%30.15 "Hg10 mi
9:00 PM61 °FClear.3 mph88%30.15 "Hg10 mi
8:00 PM64 °FClear.3 mph78%30.15 "Hg10 mi
7:00 PM64 °FClear.3 mph88%30.12 "Hg10 mi
6:00 PM66 °FClear.1 mph78%30.12 "Hg10 mi
5:00 PM68 °FSunny.3 mph69%30.12 "Hg10 mi
4:00 PM68 °FScattered clouds.6 mph73%30.12 "Hg6 mi
3:00 PM68 °FScattered clouds.10 mph73%30.12 "Hg5 mi
2:00 PM68 °FScattered clouds.8 mph78%30.15 "Hg4 mi
1:00 PM66 °FPartly sunny.8 mph78%30.15 "Hg4 mi
12:00 PM66 °FPartly sunny.10 mph78%30.18 "Hg4 mi
11:00 AM66 °FPartly sunny.13 mph78%30.18 "Hg4 mi
10:00 AM66 °FPartly sunny.13 mph78%30.18 "Hg4 mi
9:00 AM64 °FFog.13 mph88%30.18 "Hg2 mi
8:00 AM64 °FFog.13 mph88%30.15 "Hg2 mi
7:00 AM64 °FFog.10 mph88%30.15 "Hg2 mi
6:00 AM64 °FFog.10 mph94%30.12 "Hg2 mi
5:00 AM66 °FFog.15 mph94%30.09 "Hg2 mi
4:00 AM68 °FLight rain. Fog.10 mph94%30.09 "Hg3 mi
3:00 AM68 °FLow clouds.3 mph94%30.07 "Hg4 mi
2:00 AM68 °FOvercast.6 mph94%30.07 "Hg5 mi
1:00 AM68 °FFog.6 mph94%30.07 "Hg3 mi
12:00 AM68 °FFog.6 mph94%30.07 "Hg2 mi
Weather by CustomWeather, © 2014

See weather overviewHow to use our weather pages